Time,TemperatureF,DewpointF,PressureIn,WindDirection,WindDirectionDegrees,WindSpeedMPH,WindSpeedGustMPH,Humidity,HourlyPrecipIn,Conditions,Clouds,dailyrainin,SoftwareType,DateUTC
2013-03-12 00:02:00,58.0,58.0,29.86,ESE,115,7.0,13.0,100,0.03,,,0.00,,2013-03-12 04:02:00,
2013-03-12 00:13:00,58.0,58.0,29.86,ESE,115,7.0,13.0,100,0.03,,,0.00,,2013-03-12 04:13:00,
2013-03-12 00:22:00,58.0,58.0,29.86,NE,52,5.0,9.0,100,0.03,,,0.03,,2013-03-12 04:22:00,
2013-03-12 00:32:00,58.0,58.0,29.85,SE,143,3.0,10.0,100,0.03,,,0.03,,2013-03-12 04:32:00,
2013-03-12 00:43:00,58.0,58.0,29.85,SE,143,3.0,10.0,100,0.03,,,0.03,,2013-03-12 04:43:00,
2013-03-12 00:52:00,58.0,58.0,29.87,South,191,3.0,7.0,100,0.03,,,0.03,,2013-03-12 04:52:00,
2013-03-12 01:02:00,57.0,57.0,29.86,ENE,77,1.0,4.0,100,0.04,,,0.03,,2013-03-12 05:02:00,
2013-03-12 01:12:00,57.0,57.0,29.86,ENE,77,1.0,4.0,100,0.04,,,0.03,,2013-03-12 05:12:00,
2013-03-12 01:22:00,57.0,57.0,29.85,NE,38,2.0,8.0,100,0.06,,,0.03,,2013-03-12 05:22:00,
2013-03-12 01:32:00,57.0,57.0,29.85,SE,138,4.0,10.0,100,0.07,,,0.03,,2013-03-12 05:32:00,
2013-03-12 01:42:00,57.0,57.0,29.85,SE,138,4.0,10.0,100,0.07,,,0.03,,2013-03-12 05:42:00,
2013-03-12 01:52:00,57.0,57.0,29.84,South,172,0.0,8.0,100,0.07,,,0.03,,2013-03-12 05:52:00,
2013-03-12 02:02:00,57.0,57.0,29.83,South,177,4.0,7.0,100,0.06,,,0.03,,2013-03-12 06:02:00,
2013-03-12 02:12:00,57.0,57.0,29.83,South,177,4.0,7.0,100,0.06,,,0.03,,2013-03-12 06:12:00,
2013-03-12 02:22:00,57.0,57.0,29.83,SE,141,1.0,7.0,100,0.05,,,0.03,,2013-03-12 06:22:00,
2013-03-12 02:32:00,57.0,57.0,29.82,East,91,2.0,7.0,100,0.07,,,0.03,,2013-03-12 06:32:00,
2013-03-12 02:42:00,57.0,57.0,29.82,East,91,2.0,7.0,100,0.07,,,0.03,,2013-03-12 06:42:00,
2013-03-12 02:52:00,57.0,57.0,29.82,South,188,1.0,8.0,100,0.09,,,0.03,,2013-03-12 06:52:00,
2013-03-12 03:02:00,57.0,57.0,29.81,ESE,104,1.0,13.0,100,0.12,,,0.03,,2013-03-12 07:02:00,
2013-03-12 03:12:00,57.0,57.0,29.81,ESE,104,1.0,13.0,100,0.12,,,0.03,,2013-03-12 07:12:00,
2013-03-12 03:22:00,57.0,57.0,29.80,ESE,113,4.0,8.0,100,0.13,,,0.03,,2013-03-12 07:22:00,
2013-03-12 03:32:00,57.0,57.0,29.80,South,183,0.0,7.0,100,0.11,,,0.03,,2013-03-12 07:32:00,
2013-03-12 03:42:00,57.0,57.0,29.80,South,183,0.0,7.0,100,0.11,,,0.03,,2013-03-12 07:42:00,
2013-03-12 03:52:00,57.0,57.0,29.80,ESE,115,0.0,6.0,100,0.13,,,0.03,,2013-03-12 07:52:00,
2013-03-12 04:02:00,57.0,57.0,29.79,ESE,111,2.0,7.0,100,0.16,,,0.03,,2013-03-12 08:02:00,
2013-03-12 04:13:00,57.0,57.0,29.79,ESE,111,2.0,7.0,100,0.16,,,0.03,,2013-03-12 08:13:00,
2013-03-12 04:22:00,57.0,57.0,29.78,SE,124,0.0,9.0,100,0.20,,,0.03,,2013-03-12 08:22:00,
2013-03-12 04:33:00,57.0,57.0,29.78,South,179,1.0,8.0,100,0.29,,,0.03,,2013-03-12 08:33:00,
2013-03-12 04:42:00,57.0,57.0,29.78,South,179,1.0,8.0,100,0.29,,,0.03,,2013-03-12 08:42:00,
2013-03-12 04:52:00,58.0,58.0,29.77,East,101,1.0,5.0,100,0.32,,,0.03,,2013-03-12 08:52:00,
2013-03-12 05:03:00,58.0,58.0,29.76,South,190,0.0,2.0,100,0.26,,,0.03,,2013-03-12 09:03:00,
2013-03-12 05:12:00,58.0,58.0,29.76,South,190,0.0,2.0,100,0.26,,,0.03,,2013-03-12 09:12:00,
2013-03-12 05:22:00,58.0,58.0,29.75,SE,125,2.0,5.0,100,0.20,,,0.03,,2013-03-12 09:22:00,
2013-03-12 05:32:00,59.0,59.0,29.75,ESE,114,4.0,10.0,100,0.11,,,0.03,,2013-03-12 09:32:00,
2013-03-12 05:42:00,59.0,59.0,29.75,ESE,114,4.0,10.0,100,0.11,,,0.03,,2013-03-12 09:42:00,
2013-03-12 05:52:00,59.0,59.0,29.75,SSE,152,1.0,9.0,100,0.05,,,0.03,,2013-03-12 09:52:00,
2013-03-12 06:02:00,59.0,59.0,29.76,SSE,165,3.0,10.0,100,0.07,,,0.03,,2013-03-12 10:02:00,
2013-03-12 06:12:00,59.0,59.0,29.76,SSE,165,3.0,10.0,100,0.07,,,0.03,,2013-03-12 10:12:00,
2013-03-12 06:22:00,59.0,59.0,29.76,SSE,165,6.0,12.0,100,0.09,,,0.03,,2013-03-12 10:22:00,
2013-03-12 06:32:00,59.0,59.0,29.76,SSE,149,2.0,10.0,100,0.11,,,0.03,,2013-03-12 10:32:00,
2013-03-12 06:42:00,59.0,59.0,29.76,SSE,149,2.0,10.0,100,0.11,,,0.03,,2013-03-12 10:42:00,
2013-03-12 06:53:00,59.0,59.0,29.76,ENE,68,4.0,10.0,100,0.12,,,0.03,,2013-03-12 10:53:00,
2013-03-12 07:02:00,59.0,59.0,29.76,SSE,149,4.0,10.0,100,0.14,,,0.03,,2013-03-12 11:02:00,
2013-03-12 07:12:00,59.0,59.0,29.76,SSE,149,4.0,10.0,100,0.14,,,0.03,,2013-03-12 11:12:00,
2013-03-12 07:22:00,59.0,59.0,29.77,South,176,3.0,15.0,100,0.14,,,0.03,,2013-03-12 11:22:00,
2013-03-12 07:32:00,59.0,59.0,29.77,SE,145,5.0,11.0,100,0.14,,,0.03,,2013-03-12 11:32:00,
2013-03-12 07:42:00,59.0,59.0,29.77,SE,145,5.0,11.0,100,0.14,,,0.03,,2013-03-12 11:42:00,
2013-03-12 07:52:00,59.0,59.0,29.78,WSW,245,3.0,14.0,100,0.15,,,0.03,,2013-03-12 11:52:00,
2013-03-12 08:02:00,59.0,59.0,29.78,SW,215,8.0,14.0,100,0.11,,,0.03,,2013-03-12 12:02:00,
2013-03-12 08:12:00,59.0,59.0,29.78,SW,215,8.0,14.0,100,0.11,,,0.03,,2013-03-12 12:12:00,
2013-03-12 08:22:00,59.0,59.0,29.79,SSE,152,3.0,10.0,100,0.08,,,0.03,,2013-03-12 12:22:00,
2013-03-12 08:32:00,59.0,59.0,29.79,South,190,3.0,10.0,100,0.05,,,0.03,,2013-03-12 12:32:00,
2013-03-12 08:42:00,59.0,59.0,29.79,South,190,3.0,10.0,100,0.05,,,0.03,,2013-03-12 12:42:00,
2013-03-12 08:52:00,59.0,59.0,29.79,SW,236,4.0,10.0,100,0.01,,,0.03,,2013-03-12 12:52:00,
2013-03-12 09:02:00,59.0,59.0,29.80,WSW,242,0.0,9.0,100,0.01,,,0.03,,2013-03-12 13:02:00,
2013-03-12 09:12:00,59.0,59.0,29.80,WSW,242,0.0,9.0,100,0.01,,,0.03,,2013-03-12 13:12:00,
2013-03-12 09:22:00,59.0,59.0,29.80,WSW,246,4.0,8.0,100,0.01,,,0.03,,2013-03-12 13:22:00,
2013-03-12 09:32:00,59.0,59.0,29.80,WSW,255,5.0,10.0,100,0.01,,,0.03,,2013-03-12 13:32:00,
2013-03-12 09:42:00,59.0,59.0,29.80,WSW,255,5.0,10.0,100,0.01,,,0.03,,2013-03-12 13:42:00,
2013-03-12 09:52:00,59.0,59.0,29.80,South,181,2.0,11.0,100,0.01,,,0.03,,2013-03-12 13:52:00,
2013-03-12 10:02:00,60.0,60.0,29.80,SW,226,5.0,11.0,100,0.00,,,0.03,,2013-03-12 14:02:00,
2013-03-12 10:12:00,60.0,60.0,29.80,SW,226,5.0,11.0,100,0.00,,,0.03,,2013-03-12 14:12:00,
2013-03-12 10:22:00,61.0,61.0,29.80,SE,136,3.0,10.0,100,0.00,,,0.03,,2013-03-12 14:22:00,
2013-03-12 10:33:00,60.0,60.0,29.80,SW,233,2.0,11.0,100,0.00,,,0.03,,2013-03-12 14:33:00,
2013-03-12 10:42:00,60.0,60.0,29.80,SW,233,2.0,11.0,100,0.00,,,0.03,,2013-03-12 14:42:00,
2013-03-12 10:53:00,61.0,61.0,29.80,South,180,3.0,9.0,100,0.00,,,0.03,,2013-03-12 14:53:00,
2013-03-12 11:02:00,61.0,61.0,29.80,SW,221,3.0,7.0,100,0.00,,,0.03,,2013-03-12 15:02:00,
2013-03-12 11:13:00,61.0,61.0,29.80,SW,221,3.0,7.0,100,0.00,,,0.03,,2013-03-12 15:13:00,
2013-03-12 11:22:00,61.0,61.0,29.80,SSW,212,1.0,6.0,100,0.00,,,0.03,,2013-03-12 15:22:00,
2013-03-12 11:32:00,62.0,62.0,29.80,WSW,257,5.0,11.0,100,0.00,,,0.03,,2013-03-12 15:32:00,
2013-03-12 11:42:00,62.0,62.0,29.80,WSW,257,5.0,11.0,100,0.00,,,0.03,,2013-03-12 15:42:00,
2013-03-12 12:02:00,62.0,62.0,29.80,WSW,253,6.0,14.0,100,0.00,,,0.03,,2013-03-12 16:02:00,
2013-03-12 12:12:00,62.0,62.0,29.80,WSW,253,6.0,14.0,100,0.00,,,0.03,,2013-03-12 16:12:00,
2013-03-12 12:22:00,63.0,63.0,29.80,WSW,253,5.0,11.0,99,0.00,,,0.03,,2013-03-12 16:22:00,
2013-03-12 12:33:00,66.0,65.0,29.80,SW,235,9.0,13.0,97,0.00,,,0.03,,2013-03-12 16:33:00,
2013-03-12 12:43:00,66.0,65.0,29.80,SW,235,9.0,13.0,97,0.00,,,0.03,,2013-03-12 16:43:00,
2013-03-12 12:53:00,68.0,61.0,29.80,West,277,8.0,10.0,77,0.00,,,0.03,,2013-03-12 16:53:00,
2013-03-12 13:03:00,65.0,59.0,29.81,NW,305,9.0,16.0,82,0.00,,,0.03,,2013-03-12 17:03:00,
2013-03-12 13:13:00,65.0,59.0,29.81,NW,305,9.0,16.0,82,0.00,,,0.03,,2013-03-12 17:13:00,
2013-03-12 13:22:00,65.0,60.0,29.81,NW,304,7.0,13.0,85,0.00,,,0.03,,2013-03-12 17:22:00,
2013-03-12 13:34:00,68.0,60.0,29.80,West,263,6.0,10.0,76,0.00,,,0.03,,2013-03-12 17:34:00,
2013-03-12 13:43:00,68.0,60.0,29.80,West,263,6.0,10.0,76,0.00,,,0.03,,2013-03-12 17:43:00,
2013-03-12 13:54:00,68.0,59.0,29.80,WNW,285,6.0,14.0,72,0.00,,,0.03,,2013-03-12 17:54:00,
2013-03-12 14:03:00,66.0,58.0,29.79,SW,214,2.0,10.0,76,0.00,,,0.03,,2013-03-12 18:03:00,
2013-03-12 14:13:00,68.0,60.0,29.78,WSW,238,5.0,8.0,75,0.00,,,0.03,,2013-03-12 18:13:00,
2013-03-12 14:23:00,68.0,60.0,29.78,WSW,238,5.0,8.0,75,0.00,,,0.03,,2013-03-12 18:23:00,
2013-03-12 14:33:00,67.0,58.0,29.78,West,271,4.0,15.0,73,0.00,,,0.03,,2013-03-12 18:33:00,
2013-03-12 14:42:00,67.0,58.0,29.78,West,271,4.0,15.0,73,0.00,,,0.03,,2013-03-12 18:42:00,
2013-03-12 14:53:00,71.0,56.0,29.77,SW,229,4.0,10.0,59,0.00,,,0.03,,2013-03-12 18:53:00,
2013-03-12 15:03:00,70.0,55.0,29.77,WNW,290,7.0,15.0,59,0.00,,,0.03,,2013-03-12 19:03:00,
2013-03-12 15:13:00,70.0,55.0,29.77,WNW,290,7.0,15.0,59,0.00,,,0.03,,2013-03-12 19:13:00,
2013-03-12 15:23:00,71.0,55.0,29.77,WNW,284,9.0,13.0,58,0.00,,,0.03,,2013-03-12 19:23:00,
2013-03-12 15:33:00,69.0,53.0,29.77,WNW,298,6.0,13.0,56,0.00,,,0.03,,2013-03-12 19:33:00,
2013-03-12 15:43:00,69.0,53.0,29.77,WNW,298,6.0,13.0,56,0.00,,,0.03,,2013-03-12 19:43:00,
2013-03-12 15:53:00,72.0,53.0,29.77,WNW,297,12.0,16.0,52,0.00,,,0.03,,2013-03-12 19:53:00,
2013-03-12 16:02:00,70.0,54.0,29.77,WNW,300,5.0,14.0,57,0.00,,,0.03,,2013-03-12 20:02:00,
2013-03-12 16:12:00,70.0,54.0,29.77,WNW,300,5.0,14.0,57,0.00,,,0.03,,2013-03-12 20:12:00,
2013-03-12 16:23:00,70.0,53.0,29.77,NW,309,8.0,14.0,54,0.00,,,0.03,,2013-03-12 20:23:00,
2013-03-12 16:32:00,70.0,51.0,29.78,WNW,302,8.0,15.0,51,0.00,,,0.03,,2013-03-12 20:32:00,
2013-03-12 16:42:00,70.0,51.0,29.78,WNW,302,8.0,15.0,51,0.00,,,0.03,,2013-03-12 20:42:00,
2013-03-12 16:53:00,71.0,50.0,29.77,WNW,300,10.0,14.0,47,0.00,,,0.03,,2013-03-12 20:53:00,
2013-03-12 17:02:00,70.0,50.0,29.77,NW,307,6.0,11.0,49,0.00,,,0.03,,2013-03-12 21:02:00,
2013-03-12 17:13:00,70.0,50.0,29.77,NW,307,6.0,11.0,49,0.00,,,0.03,,2013-03-12 21:13:00,
2013-03-12 17:22:00,70.0,49.0,29.78,NW,307,7.0,12.0,48,0.00,,,0.03,,2013-03-12 21:22:00,
2013-03-12 17:33:00,69.0,50.0,29.78,NW,322,7.0,13.0,50,0.00,,,0.03,,2013-03-12 21:33:00,
2013-03-12 17:43:00,69.0,50.0,29.78,NW,322,7.0,13.0,50,0.00,,,0.03,,2013-03-12 21:43:00,
2013-03-12 17:53:00,69.0,46.0,29.79,WNW,283,11.0,16.0,44,0.00,,,0.03,,2013-03-12 21:53:00,
2013-03-12 18:02:00,68.0,43.0,29.79,NW,315,6.0,16.0,40,0.00,,,0.03,,2013-03-12 22:02:00,
2013-03-12 18:12:00,68.0,43.0,29.79,NW,315,6.0,16.0,40,0.00,,,0.03,,2013-03-12 22:12:00,
2013-03-12 18:22:00,68.0,41.0,29.80,NW,304,8.0,15.0,37,0.00,,,0.03,,2013-03-12 22:22:00,
2013-03-12 18:33:00,67.0,41.0,29.80,NW,323,5.0,12.0,38,0.00,,,0.03,,2013-03-12 22:33:00,
2013-03-12 18:43:00,67.0,41.0,29.80,NW,323,5.0,12.0,38,0.00,,,0.03,,2013-03-12 22:43:00,
2013-03-12 18:53:00,66.0,38.0,29.81,NW,311,5.0,13.0,35,0.00,,,0.03,,2013-03-12 22:53:00,
2013-03-12 19:02:00,64.0,36.0,29.81,NW,309,7.0,12.0,35,0.00,,,0.03,,2013-03-12 23:02:00,
2013-03-12 19:12:00,64.0,36.0,29.81,NW,309,7.0,12.0,35,0.00,,,0.03,,2013-03-12 23:12:00,
2013-03-12 19:22:00,63.0,34.0,29.82,WNW,294,5.0,10.0,34,0.00,,,0.03,,2013-03-12 23:22:00,
2013-03-12 19:34:00,63.0,36.0,29.83,WNW,302,6.0,8.0,36,0.00,,,0.03,,2013-03-12 23:34:00,
2013-03-12 19:43:00,63.0,36.0,29.83,WNW,302,6.0,8.0,36,0.00,,,0.03,,2013-03-12 23:43:00,
2013-03-12 19:52:00,61.0,37.0,29.84,WNW,300,2.0,7.0,41,0.00,,,0.03,,2013-03-12 23:52:00,
2013-03-12 20:03:00,60.0,40.0,29.85,WNW,290,3.0,7.0,47,0.00,,,0.03,,2013-03-13 00:03:00,
2013-03-12 20:13:00,60.0,40.0,29.85,WNW,290,3.0,7.0,47,0.00,,,0.03,,2013-03-13 00:13:00,
2013-03-12 20:23:00,59.0,38.0,29.87,WNW,283,4.0,16.0,45,0.00,,,0.03,,2013-03-13 00:23:00,
2013-03-12 20:33:00,59.0,34.0,29.87,West,269,8.0,13.0,39,0.00,,,0.03,,2013-03-13 00:33:00,
2013-03-12 20:42:00,59.0,34.0,29.87,West,269,8.0,13.0,39,0.00,,,0.03,,2013-03-13 00:42:00,
2013-03-12 20:53:00,58.0,32.0,29.88,NW,321,7.0,12.0,37,0.00,,,0.03,,2013-03-13 00:53:00,
2013-03-12 21:03:00,57.0,32.0,29.88,WNW,293,5.0,10.0,39,0.00,,,0.03,,2013-03-13 01:03:00,
2013-03-12 21:12:00,57.0,32.0,29.88,WNW,293,5.0,10.0,39,0.00,,,0.03,,2013-03-13 01:12:00,
2013-03-12 21:22:00,56.0,35.0,29.89,North,357,4.0,9.0,45,0.00,,,0.03,,2013-03-13 01:22:00,
2013-03-12 21:32:00,55.0,37.0,29.90,NNW,328,5.0,8.0,51,0.00,,,0.03,,2013-03-13 01:32:00,
2013-03-12 21:42:00,55.0,37.0,29.90,NNW,328,5.0,8.0,51,0.00,,,0.03,,2013-03-13 01:42:00,
2013-03-12 21:53:00,55.0,37.0,29.91,NW,305,6.0,12.0,51,0.00,,,0.03,,2013-03-13 01:53:00,
2013-03-12 22:02:00,54.0,36.0,29.91,NW,315,4.0,9.0,50,0.00,,,0.03,,2013-03-13 02:02:00,
2013-03-12 22:12:00,54.0,36.0,29.91,NW,315,4.0,9.0,50,0.00,,,0.03,,2013-03-13 02:12:00,
2013-03-12 22:22:00,53.0,35.0,29.92,NNW,345,5.0,10.0,51,0.00,,,0.03,,2013-03-13 02:22:00,
2013-03-12 22:32:00,53.0,36.0,29.93,NW,309,7.0,9.0,52,0.00,,,0.03,,2013-03-13 02:32:00,
2013-03-12 22:43:00,53.0,36.0,29.93,NW,309,7.0,9.0,52,0.00,,,0.03,,2013-03-13 02:43:00,
2013-03-12 22:53:00,52.0,35.0,29.93,NNW,328,4.0,9.0,53,0.00,,,0.03,,2013-03-13 02:53:00,
2013-03-12 23:02:00,51.0,35.0,29.93,NW,319,3.0,7.0,54,0.00,,,0.03,,2013-03-13 03:02:00,
2013-03-12 23:12:00,51.0,35.0,29.93,NW,319,3.0,7.0,54,0.00,,,0.03,,2013-03-13 03:12:00,
2013-03-12 23:22:00,51.0,35.0,29.94,NNW,328,3.0,7.0,55,0.00,,,0.03,,2013-03-13 03:22:00,
2013-03-12 23:32:00,50.0,35.0,29.94,NW,312,4.0,6.0,57,0.00,,,0.03,,2013-03-13 03:32:00,
2013-03-12 23:42:00,50.0,35.0,29.94,NW,312,4.0,6.0,57,0.00,,,0.03,,2013-03-13 03:42:00,
2013-03-12 23:53:00,49.0,34.0,29.95,NW,312,5.0,7.0,57,0.00,,,0.03,,2013-03-13 03:53:00,